Location: Arcones
(41.1182°N, 3.7238°W)
Time: 17:18:50
(UTC+00:00)

Cosmos 2058 Rocket - Pass Details

Date: 17 March 2026
Orbit: 604 x 632 km, 82.5° (Epoch: 18 April)

Event Time Altitude Azimuth Distance (km) Brightness Sun altitude
Rises 05:51:37 0° 172° (S) 2,885 6.6 -6.8°
Reaches altitude 10° 05:53:52 10° 166° (SSE) 1,988 5.8 -6.4°
Maximum altitude 05:58:06 47° 93° (E) 833 4.4 -5.6°
Drops below altitude 10° 06:02:23 10° 20° (NNE) 2,017 6.0 -4.8°
Sets 06:04:42 0° 14° (NNE) 2,932 6.8 -4.4°
